sat.trackr.live / text

‹ back to catalog

STARLINK-30158

NORAD 57438 · 2023-105J

PAYLOAD ACTIVE UNKNOWN

§ Identity

Operator
Country
US
Launch date
2023-07-24
Launch site
AFETR
Launch vehicle
Mass (kg)
RCS (m²)

Purposes: comms

External: N2YO · Heavens-Above · Gunter

§ Orbital elements

Epoch: 2026-09-20T14:59:58.610688Z

Period
94.27 min
Inclination
43.0023°
Eccentricity
0.0001640
Mean motion
15.27576350 rev/d
Perigee alt
481.9 km
Apogee alt
484.2 km
Semi-major
6,861.2 km
B*
-1.0079e-5
RAAN
239.0451°
Arg perigee
262.4679°
Mean anomaly
97.5986°
Rev number
17,539

§ Raw data

STARLINK-301581 57438U 23105J   26263.62498392 -.00000540  00000+0 -10079-4 0  99912 57438  43.0023 239.0451 0001640 262.4679  97.5986 15.27576350175392

JSON: /api/v1/satellites/57438 · /tle

For live sub-satellite position, see the globe view (requires WebGL).

§ Visibility from observer

Set your observer location to see the next 7 days of passes ≥ 10°. The values pass through the URL so the page stays shareable.

No JS? Fill the form by hand. The geolocation button needs JavaScript.